Wind_Speed
40 38 37 37 36 35 36 49 42 35 32 36 25 24 26 23 15 8 6 11 15 18 21 17 16 18 20 20 18 17 14 13 15 22 24 24 29 34 26 23 12 14 12 21
41 42 40 39 40 40 39 42 57 46 33 36 31 27 26 22 18 17 6 8 9 16 14 15 16 13 19 22 23 24 19 18 20 21 23 26 24 25 26 32 20 18 16 23
38 42 42 41 43 43 42 43 45 59 58 44 36 35 29 24 22 21 10 5 5 9 9 11 15 17 19 22 22 23 21 21 22 22 22 23 29 28 30 28 22 16 20 11
40 40 40 41 43 44 46 47 46 46 55 60 47 40 36 30 29 23 16 8 4 3 8 8 10 10 13 16 20 22 22 20 21 25 26 31 27 28 29 26 23 22 18 16
34 34 38 39 41 45 47 49 49 49 44 56 55 46 41 35 34 30 20 16 8 3 2 3 9 13 16 15 19 19 18 18 22 24 26 25 25 22 23 30 28 21 16 10
27 28 31 34 38 42 46 48 49 49 46 45 53 50 45 36 38 36 28 20 16 11 3 2 2 10 16 18 20 21 19 17 19 20 23 23 22 20 20 27 27 24 19 16
20 23 26 28 29 35 42 47 49 51 52 48 51 54 46 43 42 41 33 23 20 17 10 5 6 13 16 23 25 26 27 22 21 22 22 24 22 21 19 22 30 19 23 19
20 23 25 23 25 26 30 40 49 53 53 50 50 53 61 52 51 47 40 33 27 23 18 12 10 17 19 20 26 28 32 31 29 29 29 28 25 21 18 18 21 22 23 22
21 24 21 20 21 24 26 30 35 50 55 56 54 53 60 60 57 56 48 42 34 30 24 19 16 21 23 22 19 20 23 25 29 29 29 30 29 27 23 19 17 17 22 23
19 18 18 18 17 20 24 25 30 41 51 55 59 60 60 66 63 59 52 48 43 37 31 27 23 22 23 22 20 19 18 18 18 22 24 23 22 23 25 24 24 24 25 23
18 16 18 20 17 20 21 22 27 34 43 54 59 64 62 64 70 63 59 56 52 45 39 30 25 25 24 23 19 21 20 16 15 18 21 21 19 18 20 21 21 21 22 24
20 21 19 20 22 23 26 24 21 27 39 47 55 60 62 65 69 74 68 59 56 49 45 36 30 27 29 27 23 20 23 20 18 17 15 16 15 15 16 17 17 17 17 17
27 27 23 24 23 24 29 30 22 26 30 44 50 57 63 66 66 73 75 70 60 57 52 46 37 34 32 30 27 25 23 22 21 19 15 15 16 15 14 13 14 14 15 15
33 32 28 27 28 25 26 33 24 22 27 31 47 55 61 65 66 69 75 73 68 61 57 52 44 39 36 33 34 30 28 24 23 22 19 15 16 17 17 13 12 12 12 12
29 29 30 31 30 25 28 31 30 23 23 26 39 51 59 64 66 68 71 74 70 65 61 58 51 44 41 37 35 37 32 27 27 27 25 19 16 15 16 17 17 17 14 12
27 26 28 31 32 32 35 30 29 28 23 24 31 38 57 66 68 70 70 72 75 73 70 65 63 53 47 43 37 38 37 33 31 32 29 26 23 20 19 20 20 19 19 18
27 21 25 31 31 31 35 34 30 30 30 30 32 34 45 61 69 70 73 74 74 75 73 71 67 62 54 46 42 40 41 37 37 36 35 34 32 28 24 23 24 24 25 24
24 26 28 31 29 33 28 30 32 32 32 31 29 36 38 48 70 70 75 80 79 73 76 79 72 68 62 57 46 44 44 43 41 42 41 39 38 35 31 28 30 29 27 29
26 27 26 28 25 27 23 24 32 35 37 33 32 35 39 38 63 69 71 76 79 75 75 77 76 79 73 69 62 49 45 46 48 45 41 38 35 39 40 38 34 34 34 33
26 27 25 25 23 21 20 26 31 31 34 37 36 35 38 33 49 64 76 73 70 72 71 72 77 80 77 73 70 59 52 49 48 45 33 36 38 42 41 42 43 40 38 37
24 24 24 23 23 22 27 29 32 30 30 36 37 37 38 37 38 65 73 78 71 67 70 65 68 78 80 75 71 63 61 58 59 55 38 40 24 34 42 48 46 50 51 47
25 26 24 24 24 24 26 28 31 31 29 28 35 40 42 43 40 44 73 77 75 71 69 71 68 70 75 78 77 60 63 67 65 57 57 51 42 36 57 51 49 56 58 57
26 29 31 28 25 24 22 27 30 29 28 30 29 36 44 46 45 43 44 79 88 87 79 75 69 65 65 74 80 73 62 71 71 65 56 51 55 46 69 74 54 56 60 62
27 29 28 29 29 25 28 26 29 27 27 28 30 35 41 44 44 47 49 58 85 99 94 91 83 68 66 62 68 83 73 73 79 67 63 57 55 45 41 42 55 52 56 55
30 29 29 31 27 29 25 26 25 27 26 27 33 40 43 45 49 48 50 52 69 89 103 103 95 83 76 76 74 77 87 81 82 80 78 81 80 81 54 47 55 51 51 53
24 32 32 30 30 27 26 30 28 26 25 28 33 37 45 49 51 52 51 53 57 78 88 98 93 86 84 84 79 82 84 91 88 86 87 94 91 83 61 62 63 62 59 64
Wind_Direction
240 241 238 234 229 223 223 211 200 209 212 220 213 225 230 240 247 251 310 326 16 21 24 42 63 79 72 73 72 92 112 137 130 133 140 149 163 161 155 157 155 108 111 105
240 240 238 235 229 227 223 219 215 207 205 213 212 219 221 231 232 238 229 290 8 18 39 63 101 71 79 84 84 88 106 117 113 120 130 144 138 167 177 162 157 123 125 108
236 236 236 233 229 228 225 222 224 225 226 224 220 217 221 227 229 238 204 219 338 12 37 66 75 87 92 84 93 97 105 119 115 129 127 125 126 140 164 164 165 150 147 112
234 232 234 233 229 230 228 227 226 224 230 229 229 221 218 216 222 226 221 183 261 10 29 67 93 118 95 107 90 100 104 113 117 108 123 124 127 130 150 168 167 155 158 125
235 231 232 231 229 228 229 227 225 229 226 226 225 219 215 212 222 223 205 187 209 173 34 73 107 111 114 114 113 120 114 106 114 114 121 122 120 130 142 151 164 160 167 185
229 232 234 232 231 228 228 227 226 226 226 225 219 212 205 209 223 228 219 199 202 217 157 92 98 108 114 112 119 119 123 120 124 122 129 131 129 130 134 146 150 168 178 165
218 225 229 233 232 230 228 227 225 224 225 219 221 212 203 210 219 228 220 215 203 201 189 181 179 131 120 117 118 118 122 123 119 121 132 137 143 141 150 162 163 164 161 178
230 234 237 237 240 234 226 227 224 224 222 222 218 218 214 215 218 222 224 212 216 203 194 184 177 150 135 124 123 118 116 117 116 112 113 118 127 136 142 149 161 168 171 176
231 236 236 240 244 244 235 225 224 225 223 219 219 218 216 211 214 218 219 221 210 215 202 193 185 165 150 141 133 130 131 119 123 119 117 114 114 120 127 129 118 120 132 157
228 232 237 239 242 249 246 235 227 227 224 220 219 217 214 211 210 215 219 218 217 213 209 201 183 180 168 160 157 152 147 134 133 133 129 128 121 118 122 117 112 108 108 121
228 236 239 244 246 256 252 242 231 229 224 221 220 217 215 212 216 214 217 223 219 219 209 211 195 194 188 174 171 158 158 154 145 149 141 136 130 126 126 127 123 117 113 107
228 234 243 254 259 261 259 252 241 231 229 222 220 219 214 214 217 218 215 215 227 220 219 208 209 205 195 190 182 176 175 173 167 162 163 154 152 141 140 139 133 131 129 124
235 240 245 251 254 262 263 254 244 237 226 227 219 216 215 215 216 218 217 214 218 225 217 219 210 212 210 201 199 192 193 193 187 187 184 171 168 166 162 156 152 153 155 147
242 244 248 252 255 263 272 254 242 242 237 226 224 215 215 213 215 220 220 216 214 222 220 221 218 217 217 213 205 202 201 203 201 193 194 190 187 180 183 191 192 187 180 177
255 249 249 253 253 256 267 253 237 244 245 236 221 221 214 215 215 217 224 221 217 217 227 225 216 220 220 220 210 212 207 210 209 200 204 202 205 205 206 204 208 208 212 213
257 259 257 257 258 256 260 258 245 244 246 236 231 220 217 214 215 214 218 224 217 216 220 226 227 218 221 220 219 214 210 214 214 215 213 211 218 216 223 229 228 223 224 226
261 254 253 255 259 261 256 250 248 245 246 247 241 232 223 219 216 210 211 220 221 216 217 221 226 225 215 220 219 218 217 222 220 222 226 228 229 227 231 236 241 238 239 236
255 259 258 262 264 261 264 257 246 242 245 247 246 238 236 228 218 211 209 215 219 219 218 221 220 223 226 219 218 221 222 224 222 221 226 233 233 237 234 233 240 243 240 243
252 255 259 263 268 267 266 262 253 246 248 249 245 239 241 232 225 214 211 216 217 218 220 221 220 222 223 227 223 220 219 216 220 223 229 231 237 240 242 240 242 243 246 245
247 253 255 262 261 270 272 273 264 258 253 246 241 239 239 238 217 214 209 209 217 216 220 225 226 222 221 222 226 220 219 224 226 229 241 235 237 248 243 246 245 244 241 241
248 245 252 255 257 270 271 272 271 269 263 250 244 239 234 238 229 213 211 210 208 209 213 221 225 223 223 224 222 220 222 222 227 225 228 219 246 237 241 250 249 247 244 241
242 242 251 254 256 276 284 282 273 273 270 256 244 235 235 233 230 226 215 206 201 206 205 213 214 217 217 218 218 215 221 225 228 223 220 224 236 263 242 247 251 249 250 249
246 250 253 258 264 289 291 281 282 284 269 252 243 236 232 229 230 230 225 211 203 204 208 204 213 213 213 216 215 213 215 223 225 223 221 227 231 238 254 249 244 254 259 251
250 259 260 261 262 281 286 301 287 294 276 254 238 235 234 235 235 232 225 222 212 212 208 214 216 222 226 216 214 214 215 219 222 217 213 208 203 214 239 244 242 247 251 258
242 257 271 270 261 282 290 291 284 300 285 265 245 238 239 239 241 239 237 226 224 218 213 218 223 226 229 231 224 224 219 218 219 218 216 217 222 230 244 241 231 237 244 249
252 254 267 258 271 287 288 295 289 294 282 267 259 253 246 244 244 245 241 237 229 225 223 220 224 224 226 231 228 221 221 222 221 222 218 223 229 234 224 223 229 237 246 256
Height
10909 10913 10917 10921 10926 10929 10932 10939 10943 10943 10948 10955 10958 10963 10965 10967 10970 10970 10971 10970 10968 10966 10960 10954 10952 10949 10944 10941 10939 10938 10937 10937 10939 10943 10944 10947 10951 10954 10958 10962 10963 10966 10968 10970
10900 10903 10906 10912 10917 10921 10926 10932 10934 10938 10944 10948 10953 10958 10962 10964 10967 10969 10970 10970 10969 10968 10963 10960 10958 10955 10952 10947 10946 10943 10941 10940 10942 10945 10948 10951 10954 10956 10958 10963 10967 10968 10971 10973
10890 10893 10896 10902 10907 10912 10917 10920 10926 10932 10937 10939 10948 10955 10960 10963 10965 10966 10968 10969 10969 10969 10967 10963 10959 10960 10956 10954 10952 10951 10949 10948 10950 10950 10953 10955 10956 10960 10962 10968 10971 10973 10976 10979
10879 10884 10888 10893 10899 10903 10907 10912 10918 10924 10927 10935 10945 10953 10955 10960 10962 10965 10967 10968 10968 10969 10969 10966 10965 10964 10962 10959 10957 10957 10956 10955 10954 10955 10956 10958 10961 10962 10966 10969 10972 10976 10977 10982
10872 10877 10880 10884 10889 10893 10896 10902 10910 10915 10923 10929 10938 10948 10952 10956 10957 10961 10965 10965 10966 10968 10969 10969 10968 10967 10965 10964 10961 10960 10962 10961 10960 10960 10961 10964 10966 10969 10970 10971 10975 10977 10980 10982
10866 10869 10872 10876 10880 10884 10888 10893 10902 10909 10916 10924 10931 10937 10945 10951 10955 10957 10962 10964 10964 10966 10967 10969 10968 10967 10967 10967 10966 10962 10965 10967 10967 10965 10966 10967 10970 10972 10975 10977 10978 10981 10982 10984
10861 10862 10864 10867 10872 10876 10880 10885 10892 10899 10903 10914 10922 10932 10941 10945 10949 10950 10958 10963 10962 10964 10966 10968 10970 10968 10967 10966 10967 10965 10966 10969 10970 10970 10970 10969 10970 10972 10975 10978 10981 10984 10983 10984
10856 10857 10858 10862 10865 10869 10873 10878 10883 10888 10897 10906 10914 10920 10930 10937 10940 10944 10950 10953 10960 10962 10964 10967 10969 10968 10968 10968 10968 10968 10968 10970 10971 10974 10975 10974 10972 10972 10974 10977 10980 10982 10984 10984
10848 10849 10853 10856 10859 10861 10864 10870 10874 10878 10885 10894 10901 10907 10915 10925 10932 10935 10941 10949 10953 10958 10961 10964 10966 10968 10968 10968 10970 10970 10971 10973 10975 10976 10978 10981 10979 10978 10978 10978 10979 10982 10983 10983
10843 10845 10848 10850 10853 10854 10856 10861 10864 10866 10874 10881 10887 10895 10902 10913 10921 10927 10934 10941 10947 10951 10956 10959 10962 10966 10967 10968 10969 10970 10972 10974 10978 10978 10980 10983 10986 10985 10984 10983 10984 10985 10986 10986
10840 10842 10843 10845 10848 10846 10848 10851 10853 10856 10861 10867 10873 10880 10893 10906 10913 10920 10927 10931 10938 10945 10950 10955 10959 10962 10966 10967 10968 10969 10972 10975 10978 10982 10981 10984 10987 10988 10988 10988 10988 10988 10990 10991
10835 10835 10837 10838 10838 10839 10840 10842 10846 10847 10849 10854 10861 10872 10885 10891 10898 10905 10914 10925 10931 10940 10947 10952 10956 10960 10964 10967 10969 10970 10971 10974 10977 10982 10983 10984 10987 10990 10991 10992 10992 10992 10993 10993
10828 10828 10831 10832 10832 10832 10830 10832 10836 10837 10839 10841 10851 10861 10869 10879 10888 10892 10904 10913 10922 10928 10937 10943 10951 10956 10962 10964 10967 10969 10971 10972 10975 10978 10982 10983 10985 10988 10991 10991 10993 10994 10995 10996
10819 10821 10824 10825 10824 10825 10824 10823 10828 10829 10831 10835 10838 10847 10856 10868 10877 10885 10893 10905 10915 10923 10930 10937 10945 10951 10958 10962 10964 10967 10968 10971 10972 10975 10979 10981 10985 10986 10989 10990 10991 10993 10995 10997
10810 10813 10814 10814 10815 10818 10815 10813 10817 10822 10824 10827 10830 10835 10845 10855 10865 10875 10882 10894 10910 10919 10924 10930 10936 10943 10950 10956 10960 10963 10965 10968 10970 10971 10975 10976 10980 10985 10989 10990 10991 10991 10994 10997
10802 10804 10805 10804 10806 10808 10804 10807 10812 10814 10816 10814 10816 10820 10826 10835 10847 10860 10871 10879 10893 10902 10909 10915 10922 10930 10939 10947 10952 10957 10960 10962 10965 10969 10971 10972 10977 10980 10985 10989 10991 10992 10993 10994
10793 10796 10795 10794 10796 10795 10794 10798 10801 10805 10805 10806 10810 10814 10817 10824 10834 10845 10855 10860 10871 10887 10896 10903 10910 10917 10926 10936 10942 10950 10955 10957 10961 10964 10965 10968 10973 10975 10979 10984 10988 10989 10990 10992
10786 10786 10786 10784 10786 10784 10789 10788 10791 10793 10795 10798 10801 10803 10805 10808 10815 10829 10837 10841 10852 10868 10880 10891 10901 10908 10916 10926 10933 10939 10946 10951 10952 10957 10961 10965 10967 10971 10976 10978 10981 10984 10985 10988
10778 10777 10776 10777 10778 10776 10779 10780 10779 10782 10785 10789 10790 10790 10790 10796 10800 10815 10826 10829 10841 10855 10865 10874 10884 10897 10905 10913 10923 10932 10937 10942 10946 10951 10956 10960 10962 10965 10969 10972 10974 10976 10978 10979
10769 10769 10769 10770 10771 10770 10771 10769 10769 10773 10776 10776 10778 10780 10782 10784 10787 10797 10809 10818 10825 10841 10852 10861 10868 10881 10892 10903 10911 10922 10928 10934 10937 10945 10946 10949 10954 10958 10959 10961 10964 10966 10966 10966
10761 10760 10760 10762 10763 10763 10761 10760 10759 10762 10764 10764 10767 10770 10772 10775 10777 10783 10792 10807 10817 10829 10839 10846 10850 10863 10879 10889 10900 10908 10915 10921 10926 10932 10936 10942 10942 10943 10947 10948 10950 10952 10954 10954
10753 10752 10753 10754 10755 10755 10754 10753 10751 10751 10753 10755 10754 10755 10758 10761 10767 10772 10779 10792 10806 10818 10825 10835 10838 10848 10863 10874 10887 10893 10901 10908 10911 10920 10926 10931 10927 10930 10932 10936 10937 10939 10941 10943
10744 10744 10744 10746 10747 10747 10746 10743 10741 10741 10740 10740 10743 10745 10745 10751 10756 10761 10768 10779 10791 10798 10808 10816 10827 10835 10850 10858 10870 10877 10886 10891 10895 10907 10916 10924 10925 10918 10924 10923 10927 10929 10929 10931
10738 10735 10735 10736 10738 10738 10737 10737 10731 10731 10730 10732 10736 10735 10735 10739 10745 10749 10756 10762 10771 10780 10790 10799 10812 10820 10831 10846 10856 10864 10866 10872 10881 10893 10901 10906 10903 10904 10902 10907 10912 10916 10915 10917
10727 10727 10726 10728 10730 10728 10729 10727 10724 10723 10722 10723 10723 10724 10724 10726 10729 10736 10741 10748 10755 10762 10778 10787 10795 10807 10817 10826 10835 10842 10849 10855 10863 10875 10882 10886 10887 10890 10892 10891 10895 10897 10899 10902
10718 10719 10716 10717 10720 10721 10720 10716 10714 10715 10714 10713 10712 10713 10713 10715 10719 10723 10728 10734 10740 10749 10758 10772 10782 10790 10801 10810 10820 10825 10833 10837 10846 10853 10862 10861 10864 10869 10877 10875 10879 10880 10883 10884